Precipitable_Water
0.95 0.96 1.00 0.91 0.89 1.03 1.07 0.89 0.64 1.01 1.09 0.72 0.71 0.58 0.65 0.72 0.66 0.71 0.64 0.62 0.57 0.50 0.52 0.46 0.46 0.45 0.50 0.56 0.51 0.42 0.45 0.39 0.28 0.28 0.34 0.39 0.36 0.32 0.32 0.25 0.22 0.26 0.24 0.19
0.98 0.94 0.94 0.93 0.96 0.99 0.89 0.72 0.70 0.93 0.89 0.52 0.56 0.62 0.62 0.65 0.62 0.59 0.61 0.58 0.59 0.61 0.55 0.45 0.51 0.50 0.60 0.59 0.50 0.48 0.47 0.36 0.26 0.26 0.30 0.35 0.31 0.34 0.34 0.34 0.31 0.24 0.22 0.22
0.86 0.88 0.85 0.92 0.86 0.90 0.89 0.67 0.51 0.62 0.69 0.64 0.56 0.54 0.53 0.53 0.68 0.60 0.64 0.59 0.61 0.56 0.51 0.55 0.47 0.44 0.51 0.53 0.52 0.55 0.52 0.39 0.30 0.23 0.27 0.32 0.30 0.32 0.33 0.32 0.27 0.26 0.25 0.25
0.82 0.83 0.82 0.81 0.89 0.88 0.89 0.69 0.52 0.56 0.46 0.52 0.51 0.50 0.48 0.45 0.44 0.56 0.57 0.49 0.50 0.43 0.40 0.42 0.38 0.44 0.48 0.54 0.54 0.51 0.47 0.32 0.34 0.35 0.37 0.35 0.32 0.30 0.33 0.31 0.33 0.28 0.24 0.28
0.77 0.72 0.80 0.80 0.79 0.82 0.73 0.60 0.58 0.63 0.53 0.52 0.49 0.49 0.43 0.42 0.44 0.42 0.40 0.36 0.37 0.41 0.36 0.36 0.33 0.40 0.42 0.39 0.45 0.44 0.48 0.33 0.35 0.29 0.34 0.32 0.26 0.29 0.30 0.32 0.31 0.32 0.31 0.28
0.79 0.74 0.70 0.81 0.78 0.78 0.65 0.73 0.72 0.60 0.53 0.48 0.45 0.44 0.44 0.43 0.45 0.44 0.43 0.42 0.43 0.39 0.41 0.49 0.50 0.50 0.48 0.45 0.39 0.37 0.37 0.34 0.30 0.19 0.26 0.27 0.21 0.23 0.29 0.29 0.30 0.30 0.26 0.28
0.68 0.73 0.72 0.69 0.79 0.80 0.72 0.61 0.67 0.53 0.44 0.46 0.41 0.40 0.42 0.39 0.39 0.35 0.41 0.44 0.41 0.45 0.55 0.53 0.48 0.45 0.41 0.40 0.39 0.41 0.33 0.29 0.27 0.19 0.25 0.17 0.25 0.31 0.31 0.28 0.28 0.32 0.31 0.30
0.67 0.70 0.70 0.65 0.64 0.74 0.74 0.72 0.57 0.55 0.40 0.48 0.48 0.48 0.44 0.46 0.41 0.41 0.41 0.44 0.48 0.51 0.46 0.36 0.29 0.26 0.26 0.24 0.27 0.29 0.32 0.29 0.25 0.23 0.23 0.27 0.27 0.30 0.28 0.26 0.24 0.31 0.28 0.30
0.62 0.64 0.70 0.72 0.65 0.60 0.68 0.72 0.74 0.55 0.43 0.42 0.47 0.44 0.46 0.40 0.39 0.43 0.44 0.51 0.55 0.51 0.40 0.32 0.23 0.21 0.25 0.22 0.25 0.33 0.35 0.39 0.32 0.28 0.22 0.18 0.25 0.31 0.32 0.30 0.18 0.26 0.28 0.28
0.60 0.60 0.61 0.68 0.70 0.63 0.57 0.63 0.75 0.62 0.43 0.47 0.51 0.44 0.44 0.49 0.44 0.38 0.43 0.46 0.46 0.52 0.38 0.29 0.25 0.24 0.30 0.24 0.23 0.24 0.27 0.30 0.26 0.26 0.24 0.27 0.34 0.31 0.30 0.18 0.18 0.27 0.28 0.27
0.53 0.54 0.59 0.64 0.67 0.66 0.60 0.51 0.65 0.60 0.48 0.45 0.43 0.48 0.48 0.48 0.46 0.37 0.40 0.41 0.44 0.41 0.33 0.30 0.29 0.27 0.28 0.27 0.27 0.25 0.24 0.24 0.24 0.27 0.22 0.18 0.29 0.27 0.22 0.26 0.28 0.27 0.27 0.27
0.49 0.54 0.56 0.60 0.64 0.65 0.60 0.51 0.63 0.72 0.54 0.48 0.56 0.52 0.52 0.55 0.54 0.50 0.48 0.39 0.38 0.41 0.35 0.35 0.35 0.29 0.31 0.27 0.19 0.29 0.23 0.27 0.24 0.24 0.23 0.29 0.30 0.29 0.32 0.31 0.29 0.28 0.28 0.29
0.42 0.43 0.54 0.58 0.62 0.64 0.61 0.50 0.55 0.57 0.48 0.46 0.49 0.43 0.55 0.58 0.59 0.64 0.43 0.44 0.46 0.43 0.50 0.40 0.36 0.29 0.33 0.24 0.22 0.23 0.26 0.29 0.27 0.28 0.28 0.28 0.29 0.31 0.31 0.31 0.30 0.31 0.31 0.30
0.42 0.38 0.45 0.56 0.58 0.60 0.60 0.51 0.53 0.52 0.46 0.35 0.40 0.54 0.51 0.54 0.56 0.58 0.59 0.53 0.53 0.48 0.46 0.38 0.35 0.29 0.38 0.28 0.29 0.26 0.27 0.29 0.26 0.26 0.28 0.28 0.29 0.29 0.31 0.31 0.32 0.31 0.31 0.29
0.41 0.37 0.40 0.51 0.55 0.57 0.57 0.53 0.54 0.55 0.44 0.34 0.36 0.45 0.47 0.49 0.50 0.50 0.52 0.49 0.44 0.40 0.37 0.35 0.31 0.37 0.35 0.34 0.31 0.25 0.29 0.26 0.24 0.23 0.29 0.29 0.28 0.31 0.31 0.30 0.29 0.28 0.28 0.27
0.39 0.39 0.40 0.48 0.56 0.57 0.50 0.35 0.44 0.53 0.57 0.38 0.29 0.39 0.38 0.41 0.45 0.45 0.44 0.46 0.43 0.42 0.38 0.35 0.37 0.39 0.34 0.27 0.24 0.27 0.27 0.30 0.32 0.28 0.30 0.29 0.29 0.29 0.30 0.28 0.29 0.29 0.27 0.26
0.44 0.43 0.40 0.46 0.54 0.51 0.39 0.33 0.45 0.55 0.57 0.38 0.29 0.28 0.34 0.38 0.39 0.40 0.40 0.44 0.42 0.40 0.36 0.32 0.33 0.34 0.34 0.25 0.20 0.26 0.28 0.30 0.30 0.30 0.28 0.25 0.26 0.26 0.27 0.27 0.27 0.27 0.26 0.26
0.47 0.44 0.41 0.48 0.50 0.52 0.42 0.47 0.50 0.57 0.44 0.40 0.27 0.23 0.25 0.34 0.26 0.26 0.37 0.32 0.34 0.32 0.30 0.30 0.29 0.32 0.29 0.20 0.24 0.27 0.28 0.29 0.28 0.27 0.27 0.25 0.26 0.26 0.26 0.26 0.25 0.24 0.24 0.25
0.51 0.46 0.45 0.48 0.44 0.37 0.39 0.50 0.52 0.52 0.45 0.30 0.25 0.18 0.16 0.29 0.28 0.33 0.32 0.30 0.23 0.32 0.27 0.28 0.28 0.23 0.19 0.22 0.25 0.26 0.27 0.26 0.25 0.26 0.25 0.24 0.23 0.23 0.24 0.24 0.24 0.23 0.23 0.23
0.54 0.49 0.39 0.32 0.39 0.51 0.51 0.43 0.35 0.36 0.37 0.33 0.23 0.28 0.22 0.28 0.26 0.24 0.26 0.29 0.25 0.21 0.24 0.28 0.22 0.19 0.25 0.27 0.27 0.27 0.27 0.26 0.25 0.23 0.22 0.22 0.22 0.21 0.21 0.20 0.20 0.19 0.18 0.18
0.43 0.35 0.32 0.38 0.47 0.41 0.34 0.26 0.25 0.26 0.22 0.27 0.25 0.26 0.24 0.31 0.24 0.24 0.28 0.23 0.24 0.18 0.19 0.19 0.16 0.15 0.19 0.24 0.24 0.26 0.26 0.25 0.24 0.24 0.23 0.22 0.21 0.19 0.18 0.18 0.18 0.17 0.17 0.16
0.39 0.38 0.39 0.38 0.33 0.28 0.22 0.21 0.23 0.22 0.20 0.25 0.23 0.25 0.29 0.30 0.32 0.25 0.25 0.21 0.21 0.16 0.20 0.17 0.13 0.15 0.20 0.22 0.21 0.21 0.22 0.22 0.21 0.20 0.19 0.19 0.19 0.18 0.18 0.17 0.17 0.18 0.18 0.18
0.42 0.37 0.31 0.29 0.25 0.20 0.19 0.16 0.18 0.19 0.23 0.25 0.26 0.24 0.27 0.28 0.28 0.24 0.22 0.18 0.17 0.20 0.15 0.13 0.14 0.18 0.21 0.21 0.21 0.21 0.21 0.20 0.19 0.18 0.18 0.18 0.17 0.18 0.17 0.16 0.16 0.16 0.15 0.15
0.25 0.24 0.21 0.20 0.20 0.19 0.19 0.18 0.20 0.24 0.25 0.26 0.27 0.25 0.24 0.25 0.22 0.21 0.17 0.18 0.17 0.12 0.11 0.11 0.15 0.17 0.19 0.19 0.18 0.17 0.17 0.17 0.16 0.16 0.16 0.15 0.15 0.15 0.15 0.15 0.15 0.15 0.14 0.14
0.18 0.19 0.16 0.18 0.19 0.21 0.22 0.24 0.24 0.26 0.27 0.25 0.22 0.22 0.20 0.20 0.18 0.17 0.15 0.13 0.11 0.11 0.09 0.11 0.15 0.16 0.16 0.16 0.16 0.16 0.16 0.15 0.15 0.16 0.15 0.15 0.15 0.15 0.15 0.16 0.16 0.15 0.14 0.14
0.15 0.15 0.12 0.15 0.15 0.16 0.17 0.17 0.17 0.21 0.19 0.18 0.16 0.13 0.12 0.12 0.12 0.10 0.09 0.08 0.06 0.07 0.09 0.13 0.15 0.14 0.14 0.15 0.15 0.16 0.16 0.16 0.16 0.16 0.16 0.15 0.15 0.15 0.15 0.15 0.15 0.15 0.14 0.14
0.11 0.11 0.14 0.12 0.11 0.11 0.12 0.14 0.16 0.19 0.14 0.10 0.09 0.07 0.06 0.09 0.07 0.06 0.07 0.06 0.08 0.11 0.13 0.14 0.14 0.14 0.13 0.14 0.14 0.14 0.14 0.14 0.14 0.15 0.15 0.15 0.16 0.16 0.15 0.14 0.14 0.15 0.15 0.15
Wind_Speed
46 45 44 43 42 42 40 38 38 38 35 33 34 35 32 33 32 31 32 32 33 32 28 30 31 31 29 26 25 25 26 26 28 29 26 24 23 23 20 19 20 20 20 26
46 46 46 45 44 42 40 39 39 39 37 37 38 37 36 36 35 35 33 33 31 30 30 31 31 31 31 31 29 27 26 27 27 27 22 22 23 22 22 21 21 23 21 25
49 48 47 47 44 43 41 40 39 39 40 40 38 37 39 38 36 36 35 34 33 32 34 32 32 32 31 30 29 28 27 28 28 29 24 22 24 24 24 24 23 26 31 34
51 50 50 49 48 45 44 42 43 42 39 41 42 40 38 37 36 37 36 36 37 35 34 33 34 34 33 32 31 30 29 31 30 31 30 29 29 27 26 27 29 28 34 31
51 49 49 49 49 47 46 46 44 44 45 42 43 44 44 45 40 35 35 37 35 35 36 36 32 31 30 32 29 28 29 30 28 31 31 32 36 33 32 34 36 36 36 37
54 52 50 48 49 49 49 48 48 45 46 43 41 42 44 40 39 40 41 38 36 37 37 36 37 36 35 33 30 29 29 28 27 33 27 27 32 32 32 29 27 26 28 31
54 54 53 52 50 51 51 51 46 44 45 46 46 42 41 41 41 39 36 35 37 36 34 33 34 35 36 36 35 33 29 28 28 31 24 28 29 28 26 27 26 25 28 27
51 53 52 52 52 51 50 50 50 45 50 45 46 44 42 41 40 41 38 35 32 30 30 31 33 32 32 33 35 34 31 30 27 26 27 30 31 26 24 23 26 25 25 23
50 50 51 51 50 52 52 50 50 48 45 45 46 45 44 41 37 34 36 33 33 32 29 28 29 27 26 26 25 25 28 32 32 26 25 24 24 22 22 22 27 23 22 21
48 48 50 49 48 47 49 49 48 48 47 49 42 40 39 38 36 35 31 31 32 31 29 29 30 30 29 28 27 25 24 24 30 31 30 26 26 24 23 22 25 21 20 19
47 47 48 48 46 46 44 49 49 45 44 45 46 45 39 35 35 34 30 26 26 25 26 26 25 25 26 25 25 24 24 22 23 23 24 27 24 20 22 22 20 20 20 21
42 42 44 44 44 42 40 41 43 46 40 38 40 42 45 41 35 32 31 30 26 26 25 23 24 24 21 23 23 22 24 24 24 25 24 24 24 24 23 22 21 22 22 21
37 38 37 38 39 38 36 36 38 34 34 36 37 35 34 37 39 36 32 32 29 27 24 25 26 21 19 20 25 24 25 23 24 23 25 26 26 26 24 24 24 23 23 22
36 35 35 35 35 36 34 32 34 33 26 25 28 30 34 34 37 37 35 32 30 29 30 30 26 25 25 25 25 25 23 20 23 26 25 24 26 26 25 24 24 22 22 22
36 35 35 33 32 34 33 33 34 34 26 20 20 23 26 27 28 31 34 35 34 31 27 28 28 26 26 25 26 28 26 25 25 27 25 26 26 26 25 24 24 23 21 21
36 35 34 33 30 29 28 28 33 36 31 25 24 23 24 25 24 26 27 29 29 28 26 26 27 27 26 26 27 27 26 26 26 25 25 26 25 23 23 23 24 24 23 22
32 32 32 32 29 28 27 25 23 31 34 27 25 26 26 25 24 22 22 20 21 23 24 25 24 23 23 25 26 25 25 25 25 26 25 25 24 24 23 23 23 22 21 21
29 28 28 28 28 27 27 27 27 22 25 28 25 25 24 24 23 22 23 23 24 25 24 23 24 24 24 26 26 25 24 24 24 25 25 24 22 22 22 22 22 21 21 21
24 24 23 21 21 21 19 19 20 24 22 20 22 22 21 19 18 18 19 20 20 20 20 22 22 23 23 22 23 23 24 24 24 22 22 22 22 22 22 21 20 20 20 20
24 19 17 15 15 17 16 15 16 19 22 22 20 18 17 17 17 17 17 17 17 18 20 21 23 24 25 24 25 26 26 25 24 23 22 21 20 19 18 18 18 18 18 19
18 14 12 13 15 11 12 13 14 16 16 17 17 18 16 18 16 15 16 16 16 18 21 20 21 22 23 24 26 26 24 22 21 20 18 17 17 17 17 17 17 18 19 20
16 14 13 12 9 8 9 12 12 13 14 14 14 15 15 15 16 16 17 17 17 18 18 18 21 22 22 21 20 18 17 16 16 16 15 16 16 17 17 19 20 21 22 23
13 9 10 7 7 8 11 12 12 12 12 13 14 13 14 14 15 15 16 17 18 18 18 21 21 20 20 18 16 15 15 15 15 16 17 17 18 19 20 22 24 25 26 28
6 7 7 8 7 9 9 10 10 11 13 13 13 13 13 14 15 16 15 17 17 17 18 20 19 18 17 16 16 15 17 17 19 20 21 22 23 25 26 28 29 30 31 33
3 4 5 7 9 9 9 10 11 10 11 12 12 12 13 13 14 14 14 15 17 17 17 16 16 16 16 16 18 19 20 22 24 25 27 29 31 32 34 34 35 36 36 36
1 2 3 5 5 6 6 7 7 8 9 10 10 11 11 13 13 13 16 14 17 17 17 17 17 17 18 20 22 24 26 28 30 32 33 35 36 37 38 37 37 37 37 36
4 4 4 5 6 7 8 9 9 10 10 11 11 11 14 13 13 15 16 17 17 18 18 19 21 23 25 27 28 30 32 34 35 36 37 38 38 38 38 38 38 38 37 36
Wind_Direction
251 251 253 255 257 257 258 258 260 261 260 261 262 264 268 272 274 275 274 277 278 277 273 280 279 279 276 285 283 280 283 286 287 283 285 280 278 273 270 274 278 277 281 287
251 252 253 254 255 255 256 258 259 259 259 260 261 266 268 270 272 272 273 272 275 278 275 278 277 279 280 278 277 279 279 285 292 294 289 280 276 274 271 275 277 271 278 288
251 252 253 253 254 253 253 257 258 258 257 262 263 264 267 268 270 272 270 274 275 275 276 271 277 277 282 281 278 278 280 277 276 276 278 280 278 276 272 267 274 280 272 279
252 253 252 252 251 250 250 253 256 257 259 260 261 264 268 267 267 270 269 273 270 271 273 275 274 274 275 275 277 276 277 277 275 274 274 276 275 274 269 267 273 277 282 276
252 253 253 252 250 248 250 252 255 259 260 261 259 257 262 264 268 267 271 271 271 270 271 271 276 274 273 275 277 273 272 276 274 277 271 271 272 271 269 271 273 273 274 281
251 252 252 252 249 248 250 253 256 258 256 257 258 260 260 266 264 266 266 267 269 269 270 270 271 272 273 271 273 269 270 272 272 274 271 272 274 271 267 274 275 273 272 279
251 251 251 251 250 249 251 251 254 256 258 256 257 258 258 259 262 264 269 266 265 269 269 272 273 273 272 271 268 264 269 269 269 273 269 266 277 279 276 268 275 271 278 282
253 251 250 250 249 249 251 251 250 256 256 257 256 258 261 261 262 262 264 265 267 266 269 272 275 274 274 269 265 262 259 260 266 266 264 275 276 272 272 273 280 278 280 281
252 251 251 251 251 250 250 252 249 251 255 256 258 257 256 259 259 262 262 263 264 263 265 265 265 266 269 270 269 268 260 256 259 265 266 265 271 273 277 280 281 282 279 277
253 253 250 250 250 251 249 249 250 250 253 252 255 254 258 255 256 261 261 261 261 260 258 260 262 265 265 265 264 262 261 259 256 261 266 269 269 274 276 274 283 279 277 277
254 253 251 249 249 251 252 248 245 250 252 253 250 249 253 254 252 256 259 261 258 253 255 263 260 261 260 261 262 260 256 256 258 261 266 271 270 272 268 277 277 275 278 279
253 253 251 248 246 249 252 248 245 246 250 253 252 250 248 250 252 248 248 256 256 257 263 257 263 263 259 259 262 262 260 256 261 258 265 274 269 275 273 272 273 275 276 276
253 251 250 246 244 245 248 247 242 246 251 251 249 247 248 246 245 245 250 255 255 252 255 260 261 259 253 260 265 264 267 263 262 266 268 270 272 273 272 271 274 275 274 273
250 249 246 244 241 241 244 245 239 237 250 249 245 250 242 248 245 246 249 251 253 258 257 256 258 259 256 264 267 266 266 262 262 268 273 276 273 271 270 271 274 273 274 272
249 247 243 242 240 241 243 243 237 232 237 245 244 245 244 245 246 248 250 250 251 254 253 253 256 257 261 261 267 266 265 262 263 268 270 272 274 271 267 268 269 269 269 270
246 242 239 236 237 238 241 244 237 229 230 240 244 248 248 250 251 252 249 248 249 248 249 252 255 261 256 260 263 268 265 263 265 271 274 274 276 271 268 268 267 269 267 267
239 236 232 229 232 235 236 238 239 228 225 238 250 250 250 249 249 249 247 241 242 243 248 254 255 255 258 263 263 268 266 265 269 272 272 275 272 270 269 270 269 266 266 267
228 225 222 226 232 235 235 235 232 224 227 238 243 250 251 248 247 245 247 248 249 250 250 252 253 257 263 264 265 267 269 270 272 272 274 272 268 269 270 270 267 265 266 267
207 207 211 217 220 222 223 220 221 220 229 236 241 240 245 238 238 243 248 248 247 248 247 252 255 258 258 263 264 267 267 269 269 270 272 272 269 268 268 266 265 263 264 265
182 184 191 202 211 195 201 219 219 225 232 236 238 236 240 236 238 242 242 242 243 250 254 258 257 259 261 267 272 273 270 268 266 270 269 268 265 263 263 262 262 262 263 266
168 176 188 181 180 193 209 214 219 225 231 231 230 231 235 237 238 241 244 246 253 259 262 256 261 265 269 274 273 271 268 265 264 266 265 262 259 258 259 261 262 264 267 269
165 164 160 172 197 207 205 212 220 224 229 229 230 233 236 237 238 243 246 252 259 262 261 263 267 269 274 276 273 269 261 257 257 259 258 259 258 259 261 264 267 269 271 273
151 157 177 189 202 201 210 215 232 231 230 230 230 233 236 238 244 249 250 253 258 261 264 266 268 274 274 268 263 260 259 258 258 260 261 262 264 266 267 270 272 274 275 277
181 193 198 215 225 233 233 236 239 241 240 232 230 238 244 246 247 251 252 258 259 264 267 268 271 269 267 260 259 258 259 262 263 265 266 268 270 272 273 274 276 277 278 279
179 204 220 233 241 243 241 242 242 243 236 233 236 243 247 249 248 254 253 259 260 260 266 266 266 268 265 261 263 264 266 268 270 271 272 273 274 275 276 277 277 278 278 279
220 253 242 234 235 244 242 242 237 239 234 234 244 247 254 255 250 254 252 253 259 266 264 266 269 271 272 272 272 273 274 274 275 276 276 277 277 276 277 277 277 277 277 277
292 281 266 255 251 252 255 251 250 251 245 247 254 259 253 259 264 263 258 259 265 268 269 271 272 274 276 278 279 279 279 279 279 279 279 279 279 278 277 276 277 276 275 274